Pagina principale
METAR-TAF:

METAR-TAF

Aeroporti :

Passo Rolle, Italia

latitudine: 46-18N, longitudine: 011-47E, altezza: 2004 m

Osservazione

Il bollettino è stato emesso 27 minuti fa, alle 12:55 UTC
Vento 10 kt da ovest
Temperature 8°C
Umidità 66%
Pressione 1000 hPa
Visibilità 10 km o più
Nubi sparse ad un'altezza di 600 ft

METAR: LIVR 271255Z 28010KT 9999 SCT006 08/02 Q1000

Ora: 15:22 (13:22 UTC)


TAF: mancante

Osservazioni e previsioni meteorologiche di più di 4000 aeroporti (messaggi METAR e TAF).

Le stazioni disponibili sono rappresentate dai dischi gialli e rossi sulla carta.

Puntare il mouse per vedere il nome della stazione.

Clicca sopra per visualizzare le osservazioni e previsioni meteorologiche.

Per cambiare la mappa : fare clic sui pulsanti verdi con una croce nera per ingrandire, il pulsante verde con un trattino per diminuire, o sulla freccia verde per le mappe adiacenti.


METAR-TAF: